Time,TemperatureF,DewpointF,PressureIn,WindDirection,WindDirectionDegrees,WindSpeedMPH,WindSpeedGustMPH,Humidity,HourlyPrecipIn,Conditions,Clouds,dailyrainin,SoftwareType,DateUTC
2013-01-09 00:00:00,20.0,14.0,-100.00,North,-999,-999.0,-999.0,76,-99.99,,,0.00,,2013-01-09 07:00:00,
2013-01-09 00:52:00,20.0,14.0,-100.00,North,-999,-999.0,-999.0,76,-99.99,,,0.00,,2013-01-09 07:52:00,
2013-01-09 01:00:00,21.0,14.0,-100.00,North,-999,-999.0,-999.0,76,-99.99,,,0.00,,2013-01-09 08:00:00,
2013-01-09 01:53:00,21.0,14.0,-100.00,North,-999,-999.0,-999.0,76,-99.99,,,0.00,,2013-01-09 08:53:00,
2013-01-09 02:00:00,18.0,12.0,-100.00,North,-999,-999.0,-999.0,76,-99.99,,,0.00,,2013-01-09 09:00:00,
2013-01-09 02:53:00,18.0,12.0,-100.00,North,-999,-999.0,-999.0,76,-99.99,,,0.00,,2013-01-09 09:53:00,
2013-01-09 03:00:00,16.0,10.0,-100.00,North,-999,-999.0,-999.0,76,-99.99,,,0.00,,2013-01-09 10:00:00,
2013-01-09 03:52:00,16.0,10.0,-100.00,North,-999,-999.0,-999.0,76,-99.99,,,0.00,,2013-01-09 10:52:00,
2013-01-09 04:00:00,15.0,9.0,-100.00,North,-999,-999.0,-999.0,76,-99.99,,,0.00,,2013-01-09 11:00:00,
2013-01-09 04:53:00,15.0,9.0,-100.00,North,-999,-999.0,-999.0,76,-99.99,,,0.00,,2013-01-09 11:53:00,
2013-01-09 05:00:00,14.0,8.0,-100.00,North,-999,-999.0,-999.0,75,-99.99,,,0.00,,2013-01-09 12:00:00,
2013-01-09 05:53:00,14.0,8.0,-100.00,North,-999,-999.0,-999.0,75,-99.99,,,0.00,,2013-01-09 12:53:00,
2013-01-09 06:00:00,16.0,10.0,-100.00,North,-999,-999.0,-999.0,75,-99.99,,,0.00,,2013-01-09 13:00:00,
2013-01-09 06:53:00,16.0,10.0,-100.00,North,-999,-999.0,-999.0,75,-99.99,,,0.00,,2013-01-09 13:53:00,
2013-01-09 07:00:00,15.0,9.0,-100.00,North,-999,-999.0,-999.0,75,-99.99,,,0.00,,2013-01-09 14:00:00,
2013-01-09 07:53:00,15.0,9.0,-100.00,North,-999,-999.0,-999.0,75,-99.99,,,0.00,,2013-01-09 14:53:00,
2013-01-09 08:00:00,16.0,9.0,-100.00,North,-999,-999.0,-999.0,75,-99.99,,,0.00,,2013-01-09 15:00:00,
2013-01-09 08:53:00,16.0,9.0,-100.00,North,-999,-999.0,-999.0,75,-99.99,,,0.00,,2013-01-09 15:53:00,
2013-01-09 09:00:00,21.0,14.0,-100.00,North,-999,-999.0,-999.0,75,-99.99,,,0.00,,2013-01-09 16:00:00,
2013-01-09 09:53:00,21.0,14.0,-100.00,North,-999,-999.0,-999.0,75,-99.99,,,0.00,,2013-01-09 16:53:00,
2013-01-09 10:00:00,27.0,21.0,-100.00,North,-999,-999.0,-999.0,75,-99.99,,,0.00,,2013-01-09 17:00:00,
2013-01-09 10:53:00,27.0,21.0,-100.00,North,-999,-999.0,-999.0,75,-99.99,,,0.00,,2013-01-09 17:53:00,
2013-01-09 11:00:00,34.0,27.0,-100.00,North,-999,-999.0,-999.0,75,-99.99,,,0.00,,2013-01-09 18:00:00,
2013-01-09 11:53:00,34.0,27.0,-100.00,North,-999,-999.0,-999.0,75,-99.99,,,0.00,,2013-01-09 18:53:00,
2013-01-09 12:00:00,37.0,30.0,-100.00,North,-999,-999.0,-999.0,75,-99.99,,,0.00,,2013-01-09 19:00:00,
2013-01-09 12:53:00,37.0,30.0,-100.00,North,-999,-999.0,-999.0,75,-99.99,,,0.00,,2013-01-09 19:53:00,
2013-01-09 13:00:00,41.0,34.0,-100.00,North,-999,-999.0,-999.0,75,-99.99,,,0.00,,2013-01-09 20:00:00,
2013-01-09 13:53:00,41.0,34.0,-100.00,North,-999,-999.0,-999.0,75,-99.99,,,0.00,,2013-01-09 20:53:00,
2013-01-09 14:00:00,38.0,31.0,-100.00,North,-999,-999.0,-999.0,75,-99.99,,,0.00,,2013-01-09 21:00:00,
2013-01-09 14:53:00,38.0,31.0,-100.00,North,-999,-999.0,-999.0,75,-99.99,,,0.00,,2013-01-09 21:53:00,
2013-01-09 15:00:00,39.0,31.0,-100.00,North,-999,-999.0,-999.0,75,-99.99,,,0.00,,2013-01-09 22:00:00,
2013-01-09 15:52:00,39.0,31.0,-100.00,North,-999,-999.0,-999.0,75,-99.99,,,0.00,,2013-01-09 22:52:00,
2013-01-09 16:00:00,34.0,27.0,-100.00,North,-999,-999.0,-999.0,75,-99.99,,,0.00,,2013-01-09 23:00:00,
2013-01-09 16:53:00,34.0,27.0,-100.00,North,-999,-999.0,-999.0,75,-99.99,,,0.00,,2013-01-09 23:53:00,
2013-01-09 17:00:00,30.0,23.0,-100.00,North,-999,-999.0,-999.0,75,-99.99,,,0.00,,2013-01-10 00:00:00,
2013-01-09 17:53:00,30.0,23.0,-100.00,North,-999,-999.0,-999.0,75,-99.99,,,0.00,,2013-01-10 00:53:00,
2013-01-09 18:00:00,27.0,20.0,-100.00,North,-999,-999.0,-999.0,75,-99.99,,,0.00,,2013-01-10 01:00:00,
2013-01-09 18:53:00,27.0,20.0,-100.00,North,-999,-999.0,-999.0,75,-99.99,,,0.00,,2013-01-10 01:53:00,
2013-01-09 19:00:00,26.0,19.0,-100.00,North,-999,-999.0,-999.0,75,-99.99,,,0.00,,2013-01-10 02:00:00,
2013-01-09 20:00:00,24.0,18.0,-100.00,North,-999,-999.0,-999.0,75,-99.99,,,0.00,,2013-01-10 03:00:00,
2013-01-09 20:53:00,24.0,18.0,-100.00,North,-999,-999.0,-999.0,75,-99.99,,,0.00,,2013-01-10 03:53:00,
2013-01-09 21:00:00,24.0,-99.9,-100.00,North,-999,-999.0,-999.0,-999,-99.99,,,0.00,,2013-01-10 04:00:00,
2013-01-09 21:53:00,24.0,-99.9,-100.00,North,-999,-999.0,-999.0,-999,-99.99,,,0.00,,2013-01-10 04:53:00,
2013-01-09 22:00:00,26.0,19.0,-100.00,North,-999,-999.0,-999.0,75,-99.99,,,0.00,,2013-01-10 05:00:00,
2013-01-09 22:53:00,26.0,19.0,-100.00,North,-999,-999.0,-999.0,75,-99.99,,,0.00,,2013-01-10 05:53:00,
2013-01-09 23:00:00,25.0,18.0,-100.00,North,-999,-999.0,-999.0,75,-99.99,,,0.00,,2013-01-10 06:00:00,
2013-01-09 23:52:00,25.0,18.0,-100.00,North,-999,-999.0,-999.0,75,-99.99,,,0.00,,2013-01-10 06:52:00,